Location: Cathedral Gorge
(37.8167°N, 114.4167°W)
Time: 20:01:58
(UTC-08:00)

OTV 5 (USA 277) - Visible Passes

Search period start: 19 February 2018 00:00
Search period end: 01 March 2018 00:00
Orbit: 404 x 417 km, 43.0° (Epoch: 07 September)

Date Brightness Start Highest point End Pass type
(mag) Time Alt. Az. Time Alt. Az. Time Alt. Az.
19 Feb ? 04:43:51 10° S 04:45:48 15° SE 04:47:50 10° ESE visible
20 Feb ? 05:28:32 10° SW 05:31:43 60° SSE 05:34:59 10° ENE visible
21 Feb ? 04:40:16 36° S 04:40:43 38° SSE 04:43:48 10° E visible
22 Feb ? 03:51:51 14° E 03:51:51 14° E 03:52:30 10° E visible
22 Feb ? 05:24:37 18° W 05:26:54 62° NNW 05:30:10 10° ENE visible
23 Feb ? 04:36:06 72° ENE 04:36:06 72° ENE 04:39:06 10° ENE visible
24 Feb ? 03:47:30 14° ENE 03:47:30 14° ENE 03:48:01 10° ENE visible
24 Feb ? 05:20:15 19° WNW 05:22:12 38° N 05:25:18 10° ENE visible
25 Feb ? 04:31:35 41° NNE 04:31:35 41° NNE 04:34:15 10° ENE visible
26 Feb ? 03:42:52 12° ENE 03:42:52 12° ENE 03:43:13 10° ENE visible
26 Feb ? 05:15:37 17° WNW 05:17:35 31° N 05:20:35 10° ENE visible
27 Feb ? 04:26:53 31° NNE 04:26:53 31° NNE 04:29:27 10° ENE visible
28 Feb ? 03:38:08 11° ENE 03:38:08 11° ENE 03:38:21 10° ENE visible
28 Feb ? 05:10:53 16° NW 05:13:00 34° N 05:16:02 10° ENE visible
